TimeCDT,TemperatureF,Dew PointF,Humidity,Sea Level PressureIn,VisibilityMPH,Wind Direction,Wind SpeedMPH,Gust SpeedMPH,PrecipitationIn,Events,Conditions,WindDirDegrees,DateUTC
12:53 AM,50.0,30.0,46,29.86,10.0,South,18.4,-,N/A,,Clear,180,2013-10-28 05:53:00
1:53 AM,51.1,30.0,44,29.86,10.0,SSW,11.5,-,N/A,,Clear,200,2013-10-28 06:53:00
2:53 AM,48.9,30.0,48,29.87,10.0,South,9.2,-,N/A,,Clear,190,2013-10-28 07:53:00
3:53 AM,46.0,30.0,54,29.88,10.0,South,8.1,-,N/A,,Clear,190,2013-10-28 08:53:00
4:53 AM,44.1,30.9,60,29.88,10.0,South,8.1,-,N/A,,Clear,180,2013-10-28 09:53:00
5:53 AM,42.1,30.9,65,29.92,10.0,NE,5.8,-,N/A,,Clear,50,2013-10-28 10:53:00
6:53 AM,39.0,32.0,76,29.96,10.0,ENE,8.1,-,N/A,,Clear,60,2013-10-28 11:53:00
7:53 AM,39.9,34.0,79,29.97,10.0,East,8.1,-,N/A,,Clear,80,2013-10-28 12:53:00
8:53 AM,45.0,37.9,76,29.99,10.0,East,9.2,-,N/A,,Clear,100,2013-10-28 13:53:00
9:32 AM,46.4,41.0,81,30.00,10.0,ESE,9.2,-,N/A,,Scattered Clouds,110,2013-10-28 14:32:00
9:40 AM,48.2,42.8,82,30.00,10.0,ESE,11.5,-,N/A,,Mostly Cloudy,120,2013-10-28 14:40:00
9:53 AM,46.9,43.0,86,30.01,6.0,SE,12.7,-,N/A,,Overcast,130,2013-10-28 14:53:00
10:05 AM,46.4,44.6,93,30.01,6.0,SE,11.5,-,N/A,,Overcast,130,2013-10-28 15:05:00
10:53 AM,51.1,48.0,89,30.01,6.0,SE,12.7,-,N/A,,Overcast,130,2013-10-28 15:53:00
11:10 AM,51.8,48.2,88,30.01,7.0,SE,12.7,-,N/A,,Overcast,130,2013-10-28 16:10:00
11:53 AM,55.0,50.0,83,30.01,9.0,North,-9999.0,-,N/A,,Overcast,0,2013-10-28 16:53:00
12:13 PM,57.2,51.8,82,30.01,10.0,North,-9999.0,-,N/A,,Overcast,0,2013-10-28 17:13:00
12:40 PM,60.8,51.8,72,30.00,10.0,SE,15.0,-,N/A,,Overcast,130,2013-10-28 17:40:00
12:53 PM,63.0,52.0,67,29.99,10.0,ESE,18.4,-,N/A,,Mostly Cloudy,120,2013-10-28 17:53:00
1:31 PM,62.6,51.8,68,29.98,10.0,ESE,16.1,24.2,N/A,,Scattered Clouds,120,2013-10-28 18:31:00
1:53 PM,64.9,52.0,63,29.95,10.0,SE,18.4,26.5,N/A,,Partly Cloudy,130,2013-10-28 18:53:00
2:41 PM,66.2,53.6,64,29.94,10.0,SE,19.6,25.3,N/A,,Mostly Cloudy,130,2013-10-28 19:41:00
2:53 PM,64.9,53.1,65,29.93,10.0,SE,20.7,27.6,N/A,,Overcast,130,2013-10-28 19:53:00
3:53 PM,63.0,54.0,72,29.94,10.0,SSE,18.4,27.6,N/A,,Overcast,150,2013-10-28 20:53:00
4:53 PM,61.0,54.0,78,29.96,10.0,SSE,15.0,-,N/A,,Overcast,150,2013-10-28 21:53:00
5:03 PM,60.8,53.6,77,29.96,8.0,SSE,13.8,-,N/A,,Overcast,150,2013-10-28 22:03:00
5:48 PM,57.2,55.4,94,29.97,2.5,ESE,8.1,-,N/A,,Overcast,120,2013-10-28 22:48:00
5:53 PM,57.9,55.0,90,29.97,2.0,ESE,8.1,-,N/A,,Overcast,120,2013-10-28 22:53:00
6:18 PM,57.2,55.4,94,29.97,1.8,ESE,6.9,-,N/A,,Overcast,110,2013-10-28 23:18:00
6:53 PM,57.9,55.9,93,29.98,2.0,ESE,9.2,-,N/A,,Overcast,110,2013-10-28 23:53:00
7:04 PM,57.2,55.4,94,29.98,3.0,ESE,9.2,-,N/A,,Overcast,120,2013-10-29 00:04:00
7:09 PM,57.2,55.4,94,29.98,2.5,ESE,9.2,-,N/A,,Overcast,120,2013-10-29 00:09:00
7:53 PM,59.0,57.0,93,30.01,2.5,SE,11.5,-,N/A,,Overcast,140,2013-10-29 00:53:00
8:09 PM,59.0,57.2,94,30.00,1.5,SE,10.4,-,0.01,Rain,Light Rain,130,2013-10-29 01:09:00
8:29 PM,57.2,57.2,100,30.00,1.5,ESE,10.4,-,0.03,Rain,Light Rain,120,2013-10-29 01:29:00
8:42 PM,57.2,57.2,100,30.00,1.5,ESE,11.5,-,0.04,Rain,Light Rain,110,2013-10-29 01:42:00
8:53 PM,57.9,57.0,97,30.01,2.0,ESE,11.5,-,0.05,Rain,Light Rain,120,2013-10-29 01:53:00
9:12 PM,57.2,57.2,100,30.00,3.0,SE,12.7,-,0.00,,Overcast,130,2013-10-29 02:12:00
9:29 PM,57.2,57.2,100,30.00,3.0,ESE,10.4,-,0.00,,Overcast,120,2013-10-29 02:29:00
9:40 PM,57.2,57.2,100,30.00,4.0,SE,11.5,-,0.00,,Overcast,130,2013-10-29 02:40:00
9:53 PM,57.9,57.0,97,30.00,4.0,SE,11.5,-,0.00,,Overcast,130,2013-10-29 02:53:00
10:53 PM,59.0,57.0,93,29.99,6.0,SE,9.2,-,N/A,,Overcast,140,2013-10-29 03:53:00
11:53 PM,57.9,55.9,93,29.97,8.0,ESE,11.5,-,N/A,,Overcast,120,2013-10-29 04:53:00